OBJECT A, 67160

Orbit data source: Space-Track

You're viewing an Uncataloged Satellite

Recently launched and/or uncataloged satellites may have evolving metadata. Metadata may include but not limited to: Owner, Maufacturer, Bus, Motor, and Mission.

OBJECT A, 67160 is a satellite owned by EU SPA (ESA) that was launched on Wed, 17 Dec 2025 UTC via an ARIANE 62 launch vehicle from the French Guiana (FRGUI). Unknown objects in Earth's orbit typically refer to objects detected orbiting the Earth but have not yet been identified or cataloged. These objects could be anything from previously untracked satellites, spent rocket stages, debris from satellite collisions, or even natural meteoroids temporarily captured by Earth's gravity.

Loading next visibility...
Identifier
67160, 2025-302A
Orbit
Active
Country
Flag of ESAESA
Related business
Manufacturer
OHB
Mission
Operational spacecraft
Bus & Motor
GALILEO, AOCS
Mass
733 kg wet, 660 kg dry
Launch date (UTC)
2025-12-17 (5 days ago)
Launch vehicle
ARIANE 62
Launch site
French Guiana (FRGUI)
Object type
Unknown
Shape & HBR
Unknown
Radar Cross Section
RCS unknown

Expand to show TLE details & history
Last TLE update: 3 days ago

TLE from 3 days ago
0 OBJECT A
1 67160U 25302A   25352.14605887 -.00000007  00000-0  00000-0 0  9996
2 67160  54.2406 107.2544 0008424 237.6458 122.2317  1.72906186    29
Epoch: 2025-12-18T03:30Z
TLE epoch observation values (Epoch: 2025-12-18T03:30:19.486Z)
Latitude
0.00002°
Longitude
-32.34501°
Altitude
22,957.421 km
Speed
3.685 km/s
True Right ascension
07h 08m 58s
True Declination
0° 00' 00"
Sunlit
Object was in daylight at epoch
Visualization orbit readout
Latitude
Unknown
Longitude
Unknown
Altitude
Unknown
Speed
Unknown
Apparent Right ascension
Unknown
Apparent Declination
Unknown
Sunlit
N/A
Visualization observer readout
Local Sidereal Time
12:18:19
Azimuth
Unknown
Elevation
Unknown
Doppler factor
Unknown
Orbital elements
Apogee altitude
22,968.683 km
Perigee altitude
22,919.282 km
Semi-major axis
29,322.12 km
Eccentricity
0.00084
Inclination
54.2406°
RAAN
107.2544°
Arg. of periapsis
237.6458°
True anomaly
122.31331°
Mean anomaly
122.2317°
Eccentric anomaly
122.27251°
Mean motion
0.43227 °/min
Orbital period
832.82 mins
BSTAR
0
Loading maneuver chart data...
Computing Atmospheric mass density...
Loading historical data...
Loading historical data...
Loading historical data...
Loading historical data...
Loading historical data...
Loading historical data...
Loading historical data...
Other satellites on launch #302 in the year 2025 (2025-12-17 UTC)

Documentation

Showing up to 5 results
|